SCP
0 0 0 0 -0 -0 0 0 -0 -0 -0 -0 -0 0 0 0 0 0 0 0 0 0 0 -0 -0 -0 -0 -0 -0 0 0 0 0 0 0 0 0 0 0 0 0 0 0 0 0 0 0 0 0 0 0 0 0 0
0 0 0 0 0 -0 0 0 0 -0 -0 -0 -0 -0 -0 -0 0 0 0 0 0 0 0 0 -0 -0 -0 -0 -0 -0 0 0 0 0 0 0 0 0 0 0 0 0 0 0 -0 0 0 0 0 0 0 0 0 0
0 0 0 0 0 -0 0 0 0 0 -0 -0 -0 -0 -0 -0 -0 -0 0 0 0 0 0 0 0 0 -0 -0 -0 -0 -0 -0 -0 0 0 0 -0 0 -0 -0 -0 -0 -0 -0 -0 -0 -0 -0 -0 0 0 0 0 0
0 0 0 0 0 0 0 0 0 0 0 0 0 -0 -0 -0 -0 -0 0 0 -0 -0 -0 0 -0 0 0 0 -0 -0 -0 -0 -0 -0 -0 -0 -0 -0 -0 -0 -0 -0 -0 -0 -0 -0 0 -0 -0 -0 -0 0 -0 -0
0 0 0 0 0 0 0 0 0 0 0 0 0 -0 -0 -0 -0 -0 -0 -0 -0 -0 -0 -0 0 0 0 0 -0 -0 -0 -0 -0 -0 -0 -0 -0 -0 -0 -0 -0 0 0 0 -0 -0 0 -0 -0 -0 0 0 0 0
0 0 0 0 0 0 0 0 0 0 0 0 0 0 -0 -0 -0 0 0 0 0 -0 -0 -0 -0 0 0 0 -0 -0 -0 -0 -0 -0 -0 -0 -0 -0 0 0 0 0 0 0 0 -0 -0 -0 -0 0 0 0 0 0
0 0 0 0 0 0 0 0 0 0 0 0 0 0 0 0 0 0 -0 0 0 0 -0 -0 -0 0 0 0 0 0 -0 -0 -0 -0 0 0 0 0 0 0 0 0 0 0 0 -0 0 0 0 0 -0 0 0 0
0 0 0 0 0 0 0 0 0 0 0 0 0 0 0 0 0 0 0 0 0 0 0 -0 -0 -0 -0 0 0 0 0 0 0 0 0 0 0 0 0 0 0 -0 0 0 0 -0 -0 -0 -0 0 0 0 0 0
0 0 0 0 0 0 0 0 0 0 0 0 0 0 0 0 0 0 0 0 0 0 -0 -0 -0 -0 -0 -0 0 -0 -0 -0 0 0 0 -0 -0 0 0 0 0 -0 -0 0 -0 0 -0 -0 0 0 0 0 0 0
0 0 0 0 0 0 0 0 0 0 0 0 0 0 0 0 0 0 0 0 0 0 0 0 0 -0 0 -0 -0 -0 -0 -0 -0 -0 -0 -0 -0 -0 -0 -0 0 0 -0 -0 0 0 0 0 0 0 0 0 0 0
0 0 0 0 0 0 0 0 0 0 0 0 0 0 0 0 0 0 0 0 0 0 0 0 0 0 0 0 -0 0 -0 -0 -0 -0 -0 -0 -0 -0 -0 0 0 0 0 0 0 0 0 0 0 0 0 0 0 0
0 0 0 0 0 0 0 0 0 0 0 0 0 0 0 0 0 0 0 0 0 0 0 0 0 0 0 0 0 0 0 -0 -0 -0 -0 -0 -0 -0 0 0 0 0 0 0 0 0 0 0 0 0 0 0 0 0
0 0 0 0 0 0 0 0 0 0 0 0 0 0 0 0 0 0 0 0 0 0 0 0 0 0 0 0 0 0 0 -0 0 -0 -0 -0 0 0 0 0 0 0 0 0 0 0 0 0 0 0 0 0 0 0
0 0 0 0 0 0 0 0 0 0 0 0 0 0 0 0 0 0 0 0 0 0 0 0 0 0 0 0 0 0 0 0 0 0 0 0 0 0 0 0 0 0 0 0 0 0 0 0 0 0 0 0 0 0
0 0 0 0 0 0 0 0 0 0 0 0 0 0 0 0 0 0 0 0 0 0 0 0 0 0 0 0 0 0 0 0 0 0 0 0 0 0 0 0 0 0 0 0 0 0 0 0 0 0 0 0 0 0
0 0 0 0 0 0 0 0 0 0 0 0 0 0 0 0 0 0 0 0 0 0 0 0 0 0 0 0 0 0 0 0 0 0 0 0 0 0 0 0 0 0 0 0 0 0 0 0 0 0 0 0 0 0
0 0 0 0 0 0 0 0 0 0 0 0 0 0 0 0 0 0 0 0 0 0 0 0 0 0 0 0 0 0 0 0 0 0 0 0 0 0 0 0 0 0 0 0 0 0 0 0 0 0 0 0 0 0
0 0 0 0 0 0 0 0 0 0 0 0 0 0 0 0 0 0 0 0 0 0 0 0 0 0 0 0 0 0 0 0 0 0 0 0 0 0 0 0 0 0 0 0 0 0 0 0 0 0 0 0 0 0
0 0 0 0 0 0 0 0 0 0 0 0 0 0 0 0 0 0 0 0 0 0 0 0 0 0 0 0 0 0 0 0 0 0 0 0 0 0 0 0 0 0 0 0 0 0 0 0 0 0 0 0 0 0
0 0 0 0 0 0 0 0 0 0 0 0 0 0 0 0 0 0 0 0 0 0 0 0 0 0 0 0 0 0 0 0 0 0 0 0 0 0 0 0 0 0 0 0 0 0 0 0 0 0 0 0 0 0
0 0 0 0 0 0 0 0 0 0 0 0 0 0 0 0 0 0 0 0 0 0 0 0 0 0 0 0 0 0 0 0 0 0 0 0 0 0 0 0 0 0 0 0 0 0 0 0 0 0 0 0 0 0
0 0 0 0 0 0 0 0 0 0 0 0 0 0 0 0 0 0 0 0 0 0 0 0 0 0 0 0 0 0 0 0 0 0 0 0 0 0 0 0 0 0 0 0 0 0 0 0 0 0 0 0 0 0
0 0 0 0 0 0 0 0 0 0 0 0 0 0 0 0 0 0 0 0 0 0 0 0 0 0 0 0 0 0 0 0 0 0 0 0 0 0 0 0 0 0 0 0 0 0 0 0 0 0 0 0 0 0
0 0 0 0 0 0 0 0 0 0 0 0 0 0 0 0 0 0 0 0 0 0 0 0 0 0 0 0 0 0 0 0 0 0 0 0 0 0 0 0 0 0 0 0 0 0 0 0 0 0 0 0 0 0
0 0 0 0 0 0 0 0 0 0 0 0 0 0 0 0 0 0 0 0 0 0 0 0 0 0 0 0 0 0 0 0 0 0 0 0 0 0 0 0 0 0 0 0 0 0 0 0 0 0 0 0 0 0
0 0 0 0 0 0 0 0 0 0 0 0 0 0 0 0 0 0 0 0 0 0 0 0 0 0 0 0 0 0 0 0 0 0 0 0 0 0 0 0 0 0 0 0 0 0 0 0 0 0 0 0 0 0
0 0 0 0 0 0 0 0 0 0 0 0 0 0 0 0 0 0 0 0 0 0 0 0 0 0 0 0 0 0 0 0 0 0 0 0 0 0 0 0 0 0 0 0 0 0 0 0 0 0 0 0 0 0
0 0 0 0 0 0 0 0 0 0 0 0 0 0 0 0 0 0 0 0 0 0 0 0 0 0 0 0 0 0 0 0 0 0 0 0 0 0 0 0 0 0 0 0 0 0 0 0 0 0 0 0 0 0
0 0 0 0 0 0 0 0 0 0 0 0 0 0 0 0 0 0 0 0 0 0 0 0 0 0 0 0 0 0 0 0 0 0 0 0 0 0 0 0 0 0 0 0 0 0 0 0 0 0 0 0 0 0
0 0 0 0 0 0 0 0 0 0 0 0 0 0 0 0 0 0 0 0 0 0 0 0 0 0 0 0 0 0 0 0 0 0 0 0 0 0 0 0 0 0 0 0 0 0 0 0 0 0 0 0 0 0
0 0 0 0 0 0 0 0 0 0 0 0 0 0 0 0 0 0 0 0 0 0 0 0 0 0 0 0 0 0 0 0 0 0 0 0 0 0 0 0 0 0 0 0 0 0 0 0 0 0 0 0 0 0
0 0 0 0 0 0 0 0 0 0 0 0 0 0 0 0 0 0 0 0 0 0 0 0 0 0 0 0 0 0 0 0 0 0 0 0 0 0 0 0 0 0 0 0 0 0 0 0 0 0 0 0 0 0
0 0 0 0 0 0 0 0 0 0 0 0 0 0 0 0 0 0 0 0 0 0 0 0 0 0 0 0 0 0 0 0 0 0 0 0 0 0 0 0 0 0 0 0 0 0 0 0 0 0 0 0 0 0
Wind_Speed_500mb
86 92 92 82 82 80 75 71 68 63 56 46 41 33 26 20 18 16 19 23 12 9 23 16 11 10 9 5 6 1 6 5 7 7 6 6 5 8 4 6 7 8 8 3 5 8 10 16 8 13 7 2 25 42
96 94 97 90 86 85 80 75 72 67 59 51 44 36 28 23 19 15 18 22 17 10 16 18 14 10 9 7 5 5 3 1 1 7 2 6 1 4 4 4 6 3 10 6 13 10 7 33 6 18 8 10 29 43
112 95 101 98 89 90 86 80 76 71 62 55 47 38 32 26 22 16 13 21 18 11 14 17 15 15 13 10 7 4 2 2 1 1 11 4 2 6 5 9 1 8 11 5 5 7 22 23 27 21 12 10 19 35
121 102 105 105 93 92 90 84 80 75 65 58 49 41 35 28 23 19 17 24 17 8 9 11 18 19 14 14 10 7 2 4 5 3 1 5 4 14 5 4 7 10 19 10 9 17 12 32 40 35 29 19 22 30
127 115 109 111 98 95 92 88 83 78 69 61 52 43 38 31 25 20 18 22 21 7 10 6 16 14 16 15 13 10 9 9 6 2 3 4 4 2 3 3 7 25 14 10 11 23 25 11 41 43 48 43 35 36
131 128 113 117 106 99 96 90 87 81 73 63 53 45 37 32 28 24 11 24 26 15 4 5 7 10 17 15 16 14 12 8 3 2 3 4 4 2 2 6 23 46 46 56 15 13 23 14 17 37 37 41 42 44
133 137 120 122 113 102 101 94 91 84 75 64 53 45 39 34 32 21 9 9 34 24 5 9 1 6 14 10 7 9 12 8 5 3 2 4 3 6 4 8 21 22 46 56 50 28 30 31 18 25 22 22 26 32
134 145 124 126 119 106 104 98 94 86 76 65 56 49 41 34 28 23 15 11 29 20 7 7 1 2 16 10 7 7 5 7 3 5 3 5 7 5 11 32 35 22 20 37 57 45 34 26 37 27 28 25 26 27
142 148 135 128 124 112 108 103 97 90 80 70 59 46 33 20 16 21 21 20 31 11 7 8 10 7 15 9 8 7 3 3 1 4 4 2 4 12 23 33 38 50 28 17 44 57 51 45 35 33 35 38 40 36
148 151 148 135 128 119 115 110 102 96 84 72 62 24 16 19 17 28 17 15 16 14 14 7 15 7 17 11 7 10 2 2 2 7 2 6 10 64 60 44 29 25 51 34 42 50 53 53 51 49 46 38 36 34
160 157 149 138 136 127 124 117 112 101 88 69 28 16 30 39 24 14 8 7 8 6 15 14 15 13 21 9 8 9 5 2 3 7 7 5 8 16 24 46 64 35 39 54 37 28 32 40 32 36 34 32 32 33
159 157 155 141 145 132 132 126 121 115 80 57 32 41 42 15 8 9 4 2 4 11 15 22 15 12 17 12 11 6 7 4 8 3 6 8 11 35 22 16 18 45 65 43 48 41 20 23 20 15 17 21 23 25
160 159 155 142 154 138 141 132 124 109 81 60 25 18 15 9 6 16 15 8 4 25 28 22 11 12 13 8 15 7 7 8 5 4 8 12 20 9 14 17 20 24 53 56 39 40 36 26 20 16 12 11 18 24
166 162 159 146 157 146 146 138 132 107 91 20 20 10 13 6 11 11 10 10 16 25 57 50 21 8 9 7 5 10 4 4 5 3 14 7 27 15 29 15 17 21 37 72 47 39 26 22 18 14 12 15 22 27
165 146 162 154 157 153 151 145 133 114 44 18 17 13 11 16 9 18 20 26 24 61 77 32 19 8 5 8 4 8 7 8 12 11 7 12 12 14 30 26 20 19 28 60 51 31 24 21 18 17 17 21 29 34
170 159 162 160 164 159 155 144 126 95 37 17 15 9 7 11 4 24 32 25 52 82 50 11 10 8 3 10 7 15 14 14 8 8 19 19 15 11 27 31 30 31 33 34 31 27 24 24 21 20 21 27 33 42
173 139 151 162 152 162 155 128 86 32 32 20 13 28 25 19 27 31 41 41 81 67 7 11 11 13 12 5 5 10 11 8 12 17 17 16 9 7 29 37 34 30 29 27 26 26 25 26 28 27 27 29 39 51
152 153 164 169 173 159 114 61 42 23 14 13 18 35 42 16 39 41 36 66 64 32 23 11 21 6 12 12 8 10 40 37 31 26 13 10 12 19 32 37 33 30 27 27 28 31 33 35 41 41 40 45 56 64
148 173 163 179 182 118 33 41 32 14 6 30 36 52 38 20 31 47 52 88 43 41 22 20 8 8 9 18 20 11 16 15 4 9 4 9 16 20 23 30 33 34 36 39 41 43 42 43 44 45 51 61 69 68
158 184 171 186 161 50 15 11 19 17 14 22 41 50 29 20 35 48 63 80 44 23 9 7 10 16 16 11 12 9 8 11 9 4 14 17 15 8 19 26 30 35 44 51 56 56 54 54 54 59 57 65 68 73
173 160 173 155 101 26 17 16 14 15 29 16 41 39 22 45 37 33 41 65 23 12 10 25 40 54 46 38 32 28 25 22 20 19 35 44 47 48 44 47 55 56 55 57 62 57 55 68 70 63 70 75 77 70
141 167 119 95 28 12 15 12 28 28 13 30 33 17 21 14 20 25 39 25 15 23 31 39 58 59 62 68 71 73 67 60 64 66 65 63 62 61 60 60 60 62 63 64 66 70 71 70 78 81 79 72 61 54
149 123 69 22 17 11 15 22 12 9 11 13 20 11 5 7 16 37 15 15 22 37 56 61 61 65 74 77 77 76 77 82 81 82 79 74 70 69 69 68 68 69 69 68 69 71 75 72 67 62 57 53 49 42
117 35 14 12 13 10 18 8 11 15 14 6 7 9 7 11 27 10 7 13 33 47 60 69 72 80 82 83 86 81 75 87 88 83 81 83 79 76 72 71 68 64 60 53 55 57 57 56 49 47 44 42 38 37
23 9 19 11 14 14 10 8 6 7 7 7 9 6 7 16 7 8 8 13 39 55 64 68 72 74 78 79 82 84 78 80 74 71 68 69 63 59 57 55 53 49 43 45 44 39 33 30 31 34 35 34 34 34
13 9 7 8 8 10 11 12 11 11 10 7 6 11 10 5 7 12 8 25 46 55 63 69 70 73 72 72 72 69 64 56 46 46 50 41 37 36 36 36 34 28 25 25 25 23 23 24 25 27 29 31 34 37
10 5 9 12 28 32 14 15 12 9 9 11 10 10 7 7 11 8 13 21 32 39 35 35 41 47 48 43 36 28 21 21 23 29 25 23 23 23 23 22 19 14 16 22 26 27 28 30 31 33 34 37 40 43
10 13 15 16 16 13 14 7 8 8 8 19 21 11 22 20 12 7 4 3 4 6 14 21 18 13 16 17 16 14 14 18 17 12 11 11 10 7 7 10 14 16 20 25 33 38 41 43 46 47 49 52 53 50
9 31 30 12 12 10 6 9 9 13 34 40 11 9 11 13 12 16 12 8 10 9 5 8 10 10 6 6 8 11 8 9 13 13 11 10 7 11 16 20 25 29 33 37 41 45 48 50 51 51 52 52 50 47
7 7 13 7 9 5 5 18 26 44 46 43 31 22 21 18 18 11 11 11 8 2 4 7 8 4 2 1 4 7 10 14 18 21 24 25 26 27 29 32 35 37 39 42 45 48 51 52 51 49 45 41 37 34
21 11 13 12 7 5 21 27 45 40 37 35 36 24 24 22 20 12 7 3 1 6 7 9 10 11 12 14 16 18 20 23 23 25 28 32 36 40 43 45 47 47 48 50 50 49 46 42 39 35 32 28 25 24
9 9 9 9 6 19 27 10 14 9 16 16 14 17 16 14 9 8 9 9 6 7 11 13 15 16 20 22 24 26 29 29 30 33 36 38 39 42 45 46 47 48 47 43 39 36 33 30 27 24 22 22 23 21
12 16 20 16 9 5 10 12 7 6 7 5 7 7 8 6 9 4 9 16 16 16 17 18 18 18 18 18 20 24 30 34 37 37 36 36 36 37 38 38 36 35 32 29 26 23 21 18 18 18 17 15 12 11
Wind_Direction_500mb
211 208 205 199 204 200 199 197 196 194 192 193 187 191 194 187 188 184 187 185 191 160 162 175 172 167 162 162 138 212 30 346 39 62 113 217 131 218 72 223 190 158 121 200 75 55 292 180 121 166 211 251 180 178
210 209 205 199 205 201 199 198 196 193 193 192 190 193 196 189 195 187 187 196 192 173 163 173 179 179 192 170 150 159 147 228 131 82 20 93 132 42 158 260 322 316 182 188 179 215 245 190 195 195 193 176 176 184
207 210 206 200 204 201 199 198 196 194 194 193 192 193 198 193 195 203 198 193 184 138 137 156 169 171 179 189 190 168 184 178 197 128 156 172 143 127 159 245 194 242 198 194 60 239 232 218 219 206 188 189 193 197
206 208 206 201 202 204 199 198 196 194 194 193 191 194 199 199 200 204 196 185 200 154 122 195 192 178 186 189 196 193 190 190 163 160 88 127 143 194 222 230 207 205 152 180 264 266 277 236 221 214 205 201 203 200
206 206 206 200 200 204 200 197 195 194 194 193 192 195 200 197 199 201 191 203 206 231 153 144 174 176 187 188 197 202 196 204 199 198 99 241 212 117 330 6 241 190 182 174 217 220 193 218 219 219 221 223 219 213
206 203 205 200 199 202 199 197 194 193 193 192 193 193 198 194 190 179 186 216 215 202 198 112 183 183 177 176 180 185 189 192 195 225 236 251 246 227 119 248 254 215 210 212 199 197 197 196 182 200 221 228 227 226
209 202 202 199 198 200 197 195 193 192 191 189 190 188 191 188 184 189 202 196 197 189 212 99 311 152 159 161 177 175 190 190 181 183 243 309 294 244 199 231 251 236 224 217 219 210 204 203 201 202 211 214 217 221
210 201 200 198 198 198 196 193 190 189 186 185 183 181 182 186 191 212 216 161 177 177 201 118 295 154 169 161 170 165 157 172 169 193 168 247 282 250 255 239 239 238 227 217 216 217 230 227 218 213 218 226 224 223
210 201 195 196 198 197 193 191 188 185 182 180 177 173 174 189 196 209 192 179 184 196 192 160 146 201 161 163 145 149 167 48 260 220 178 206 245 231 229 239 234 219 213 212 207 215 225 231 229 227 231 235 237 240
205 201 193 192 196 197 189 188 185 183 179 172 166 157 169 178 164 152 158 176 200 216 212 155 138 140 157 160 157 136 210 159 193 246 262 225 256 254 250 242 234 217 212 213 201 208 218 228 230 233 238 243 248 252
203 201 193 188 195 196 186 186 183 179 171 160 164 162 152 148 143 171 182 173 186 265 201 158 167 143 175 137 181 198 170 159 81 255 146 280 274 246 250 236 229 213 208 215 221 230 237 238 239 238 239 243 248 251
196 201 193 182 190 193 185 184 182 175 166 169 157 138 137 177 159 115 217 292 169 219 173 153 141 130 148 151 119 159 136 62 229 128 69 271 251 251 225 211 224 223 219 218 214 211 203 180 189 207 230 244 255 263
192 197 189 181 184 189 184 182 181 171 162 152 151 155 168 168 61 167 191 246 231 169 171 155 132 148 133 150 92 102 99 210 127 66 231 231 249 246 219 236 231 228 208 204 201 204 208 212 226 234 238 250 259 266
188 192 183 180 186 183 181 178 178 165 159 153 158 176 195 197 236 187 184 183 167 158 156 145 120 138 129 86 135 108 242 74 50 297 238 249 263 264 218 217 227 220 204 199 194 190 208 224 217 220 248 252 267 277
186 190 178 180 180 177 176 176 175 170 162 169 174 212 191 194 164 169 166 141 147 156 151 124 96 131 58 97 52 110 51 251 216 231 234 276 310 239 198 189 169 156 173 184 192 208 199 203 222 240 257 267 276 284
181 181 175 175 176 173 171 170 170 173 184 183 198 119 114 129 123 163 166 152 154 156 150 138 117 88 198 135 113 214 149 219 242 221 271 291 301 266 195 175 155 141 142 157 175 190 200 217 232 245 255 275 286 289
169 170 171 172 173 170 166 159 163 179 179 188 189 197 176 190 180 169 171 170 162 162 164 135 123 188 115 70 248 193 207 221 239 272 272 293 270 206 185 179 175 176 177 188 198 206 213 219 231 246 269 301 296 295
171 171 168 167 166 159 161 167 169 167 164 159 149 176 187 183 168 164 170 171 164 190 158 183 133 139 180 182 236 228 233 250 268 276 298 290 243 207 193 191 195 197 205 217 221 221 224 235 246 258 275 288 287 291
167 170 167 163 161 156 153 178 184 131 127 154 160 175 179 172 179 183 175 176 177 176 158 159 110 179 220 211 224 226 235 239 323 8 261 272 237 218 206 204 211 220 230 239 242 245 250 257 265 281 286 284 286 292
166 166 165 161 161 153 120 105 141 117 154 164 159 159 160 154 161 169 173 176 172 166 165 172 208 224 221 231 219 220 216 221 271 344 91 66 13 316 278 275 277 282 280 277 272 269 264 260 273 290 287 288 290 291
163 161 159 156 158 152 101 136 115 124 129 128 152 146 124 144 146 164 170 178 185 212 211 215 219 230 248 255 254 252 253 244 218 241 286 289 295 293 287 282 285 282 279 279 277 275 267 273 285 287 290 292 289 288
154 156 148 154 146 95 92 100 120 117 100 138 137 127 130 153 153 169 165 188 223 215 205 213 223 236 246 254 262 264 269 268 269 273 277 281 282 281 280 282 282 281 280 276 273 273 274 279 280 280 282 283 280 279
148 149 146 133 105 87 113 117 93 101 121 159 128 103 114 133 158 154 192 223 229 221 226 234 243 251 253 257 260 266 272 276 278 279 281 282 282 279 278 282 281 277 277 278 278 276 275 277 278 278 279 276 274 270
144 135 124 113 101 103 130 92 106 110 104 137 120 118 158 147 159 205 245 223 222 233 234 242 247 252 253 254 257 263 271 272 273 277 282 283 282 286 288 285 282 278 277 279 275 275 278 280 283 279 275 273 268 266
108 140 119 83 115 113 106 121 115 90 108 147 116 134 178 162 181 204 225 234 230 239 246 252 253 254 253 261 268 270 273 274 276 280 282 280 282 281 281 284 284 281 278 272 272 275 275 277 278 280 280 273 269 272
80 26 96 135 133 116 161 128 151 137 123 113 88 124 154 159 163 237 214 225 236 249 255 255 258 263 265 269 272 279 286 288 284 274 273 276 275 273 277 279 281 284 266 267 261 256 261 268 276 280 279 278 275 274
121 118 89 75 122 123 99 77 122 119 120 136 157 158 157 153 228 252 230 248 267 273 276 281 275 271 275 282 283 283 272 260 257 261 264 263 263 267 275 286 293 286 263 259 260 265 271 275 280 281 278 275 272 272
112 150 130 141 92 82 117 113 128 145 137 151 130 163 167 188 219 195 179 225 48 178 270 302 333 292 260 255 252 241 241 242 241 242 247 262 268 265 263 268 265 273 276 275 272 270 271 273 274 275 274 273 273 274
78 126 118 79 88 85 120 138 175 163 156 162 133 160 203 187 164 184 197 197 172 135 85 360 5 13 69 163 207 208 202 246 261 258 252 253 244 257 265 269 268 268 270 271 271 272 273 274 273 272 276 281 282 280
162 120 96 62 83 126 119 141 147 159 165 173 173 151 148 150 166 185 217 228 244 295 10 306 298 273 241 203 208 214 227 240 246 256 266 268 271 267 265 266 268 268 269 270 270 270 271 273 278 282 284 284 282 279
127 104 77 60 92 93 129 138 151 161 169 177 185 188 163 161 153 125 91 97 40 289 274 260 269 271 266 263 262 260 260 268 264 260 258 263 269 273 275 274 274 275 275 274 275 275 276 277 278 278 276 273 269 270
73 75 119 102 85 119 120 127 131 133 163 177 178 175 157 155 114 159 6 9 332 299 310 314 304 294 293 293 292 290 286 282 274 270 269 273 274 273 273 274 275 277 280 282 281 278 275 271 267 264 260 264 266 264
72 78 90 105 117 125 124 118 77 74 75 83 65 124 150 170 121 60 355 351 346 343 334 326 320 316 308 299 291 289 288 289 289 289 288 283 280 277 275 278 281 282 282 280 276 271 264 258 258 259 256 250 238 221
Wind_Speed_850mb
86 92 92 82 82 80 75 71 68 63 56 46 41 33 26 20 18 16 19 23 12 9 23 16 11 10 9 5 6 1 6 5 7 7 6 6 5 8 4 6 7 8 8 3 5 8 10 16 8 13 7 2 25 42
96 94 97 90 86 85 80 75 72 67 59 51 44 36 28 23 19 15 18 22 17 10 16 18 14 10 9 7 5 5 3 1 1 7 2 6 1 4 4 4 6 3 10 6 13 10 7 33 6 18 8 10 29 43
112 95 101 98 89 90 86 80 76 71 62 55 47 38 32 26 22 16 13 21 18 11 14 17 15 15 13 10 7 4 2 2 1 1 11 4 2 6 5 9 1 8 11 5 5 7 22 23 27 21 12 10 19 35
121 102 105 105 93 92 90 84 80 75 65 58 49 41 35 28 23 19 17 24 17 8 9 11 18 19 14 14 10 7 2 4 5 3 1 5 4 14 5 4 7 10 19 10 9 17 12 32 40 35 29 19 22 30
127 115 109 111 98 95 92 88 83 78 69 61 52 43 38 31 25 20 18 22 21 7 10 6 16 14 16 15 13 10 9 9 6 2 3 4 4 2 3 3 7 25 14 10 11 23 25 11 41 43 48 43 35 36
131 128 113 117 106 99 96 90 87 81 73 63 53 45 37 32 28 24 11 24 26 15 4 5 7 10 17 15 16 14 12 8 3 2 3 4 4 2 2 6 23 46 46 56 15 13 23 14 17 37 37 41 42 44
133 137 120 122 113 102 101 94 91 84 75 64 53 45 39 34 32 21 9 9 34 24 5 9 1 6 14 10 7 9 12 8 5 3 2 4 3 6 4 8 21 22 46 56 50 28 30 31 18 25 22 22 26 32
134 145 124 126 119 106 104 98 94 86 76 65 56 49 41 34 28 23 15 11 29 20 7 7 1 2 16 10 7 7 5 7 3 5 3 5 7 5 11 32 35 22 20 37 57 45 34 26 37 27 28 25 26 27
142 148 135 128 124 112 108 103 97 90 80 70 59 46 33 20 16 21 21 20 31 11 7 8 10 7 15 9 8 7 3 3 1 4 4 2 4 12 23 33 38 50 28 17 44 57 51 45 35 33 35 38 40 36
148 151 148 135 128 119 115 110 102 96 84 72 62 24 16 19 17 28 17 15 16 14 14 7 15 7 17 11 7 10 2 2 2 7 2 6 10 64 60 44 29 25 51 34 42 50 53 53 51 49 46 38 36 34
160 157 149 138 136 127 124 117 112 101 88 69 28 16 30 39 24 14 8 7 8 6 15 14 15 13 21 9 8 9 5 2 3 7 7 5 8 16 24 46 64 35 39 54 37 28 32 40 32 36 34 32 32 33
159 157 155 141 145 132 132 126 121 115 80 57 32 41 42 15 8 9 4 2 4 11 15 22 15 12 17 12 11 6 7 4 8 3 6 8 11 35 22 16 18 45 65 43 48 41 20 23 20 15 17 21 23 25
160 159 155 142 154 138 141 132 124 109 81 60 25 18 15 9 6 16 15 8 4 25 28 22 11 12 13 8 15 7 7 8 5 4 8 12 20 9 14 17 20 24 53 56 39 40 36 26 20 16 12 11 18 24
166 162 159 146 157 146 146 138 132 107 91 20 20 10 13 6 11 11 10 10 16 25 57 50 21 8 9 7 5 10 4 4 5 3 14 7 27 15 29 15 17 21 37 72 47 39 26 22 18 14 12 15 22 27
165 146 162 154 157 153 151 145 133 114 44 18 17 13 11 16 9 18 20 26 24 61 77 32 19 8 5 8 4 8 7 8 12 11 7 12 12 14 30 26 20 19 28 60 51 31 24 21 18 17 17 21 29 34
170 159 162 160 164 159 155 144 126 95 37 17 15 9 7 11 4 24 32 25 52 82 50 11 10 8 3 10 7 15 14 14 8 8 19 19 15 11 27 31 30 31 33 34 31 27 24 24 21 20 21 27 33 42
173 139 151 162 152 162 155 128 86 32 32 20 13 28 25 19 27 31 41 41 81 67 7 11 11 13 12 5 5 10 11 8 12 17 17 16 9 7 29 37 34 30 29 27 26 26 25 26 28 27 27 29 39 51
152 153 164 169 173 159 114 61 42 23 14 13 18 35 42 16 39 41 36 66 64 32 23 11 21 6 12 12 8 10 40 37 31 26 13 10 12 19 32 37 33 30 27 27 28 31 33 35 41 41 40 45 56 64
148 173 163 179 182 118 33 41 32 14 6 30 36 52 38 20 31 47 52 88 43 41 22 20 8 8 9 18 20 11 16 15 4 9 4 9 16 20 23 30 33 34 36 39 41 43 42 43 44 45 51 61 69 68
158 184 171 186 161 50 15 11 19 17 14 22 41 50 29 20 35 48 63 80 44 23 9 7 10 16 16 11 12 9 8 11 9 4 14 17 15 8 19 26 30 35 44 51 56 56 54 54 54 59 57 65 68 73
173 160 173 155 101 26 17 16 14 15 29 16 41 39 22 45 37 33 41 65 23 12 10 25 40 54 46 38 32 28 25 22 20 19 35 44 47 48 44 47 55 56 55 57 62 57 55 68 70 63 70 75 77 70
141 167 119 95 28 12 15 12 28 28 13 30 33 17 21 14 20 25 39 25 15 23 31 39 58 59 62 68 71 73 67 60 64 66 65 63 62 61 60 60 60 62 63 64 66 70 71 70 78 81 79 72 61 54
149 123 69 22 17 11 15 22 12 9 11 13 20 11 5 7 16 37 15 15 22 37 56 61 61 65 74 77 77 76 77 82 81 82 79 74 70 69 69 68 68 69 69 68 69 71 75 72 67 62 57 53 49 42
117 35 14 12 13 10 18 8 11 15 14 6 7 9 7 11 27 10 7 13 33 47 60 69 72 80 82 83 86 81 75 87 88 83 81 83 79 76 72 71 68 64 60 53 55 57 57 56 49 47 44 42 38 37
23 9 19 11 14 14 10 8 6 7 7 7 9 6 7 16 7 8 8 13 39 55 64 68 72 74 78 79 82 84 78 80 74 71 68 69 63 59 57 55 53 49 43 45 44 39 33 30 31 34 35 34 34 34
13 9 7 8 8 10 11 12 11 11 10 7 6 11 10 5 7 12 8 25 46 55 63 69 70 73 72 72 72 69 64 56 46 46 50 41 37 36 36 36 34 28 25 25 25 23 23 24 25 27 29 31 34 37
10 5 9 12 28 32 14 15 12 9 9 11 10 10 7 7 11 8 13 21 32 39 35 35 41 47 48 43 36 28 21 21 23 29 25 23 23 23 23 22 19 14 16 22 26 27 28 30 31 33 34 37 40 43
10 13 15 16 16 13 14 7 8 8 8 19 21 11 22 20 12 7 4 3 4 6 14 21 18 13 16 17 16 14 14 18 17 12 11 11 10 7 7 10 14 16 20 25 33 38 41 43 46 47 49 52 53 50
9 31 30 12 12 10 6 9 9 13 34 40 11 9 11 13 12 16 12 8 10 9 5 8 10 10 6 6 8 11 8 9 13 13 11 10 7 11 16 20 25 29 33 37 41 45 48 50 51 51 52 52 50 47
7 7 13 7 9 5 5 18 26 44 46 43 31 22 21 18 18 11 11 11 8 2 4 7 8 4 2 1 4 7 10 14 18 21 24 25 26 27 29 32 35 37 39 42 45 48 51 52 51 49 45 41 37 34
21 11 13 12 7 5 21 27 45 40 37 35 36 24 24 22 20 12 7 3 1 6 7 9 10 11 12 14 16 18 20 23 23 25 28 32 36 40 43 45 47 47 48 50 50 49 46 42 39 35 32 28 25 24
9 9 9 9 6 19 27 10 14 9 16 16 14 17 16 14 9 8 9 9 6 7 11 13 15 16 20 22 24 26 29 29 30 33 36 38 39 42 45 46 47 48 47 43 39 36 33 30 27 24 22 22 23 21
12 16 20 16 9 5 10 12 7 6 7 5 7 7 8 6 9 4 9 16 16 16 17 18 18 18 18 18 20 24 30 34 37 37 36 36 36 37 38 38 36 35 32 29 26 23 21 18 18 18 17 15 12 11
Wind_Direction_850mb
211 208 205 199 204 200 199 197 196 194 192 193 187 191 194 187 188 184 187 185 191 160 162 175 172 167 162 162 138 212 30 346 39 62 113 217 131 218 72 223 190 158 121 200 75 55 292 180 121 166 211 251 180 178
210 209 205 199 205 201 199 198 196 193 193 192 190 193 196 189 195 187 187 196 192 173 163 173 179 179 192 170 150 159 147 228 131 82 20 93 132 42 158 260 322 316 182 188 179 215 245 190 195 195 193 176 176 184
207 210 206 200 204 201 199 198 196 194 194 193 192 193 198 193 195 203 198 193 184 138 137 156 169 171 179 189 190 168 184 178 197 128 156 172 143 127 159 245 194 242 198 194 60 239 232 218 219 206 188 189 193 197
206 208 206 201 202 204 199 198 196 194 194 193 191 194 199 199 200 204 196 185 200 154 122 195 192 178 186 189 196 193 190 190 163 160 88 127 143 194 222 230 207 205 152 180 264 266 277 236 221 214 205 201 203 200
206 206 206 200 200 204 200 197 195 194 194 193 192 195 200 197 199 201 191 203 206 231 153 144 174 176 187 188 197 202 196 204 199 198 99 241 212 117 330 6 241 190 182 174 217 220 193 218 219 219 221 223 219 213
206 203 205 200 199 202 199 197 194 193 193 192 193 193 198 194 190 179 186 216 215 202 198 112 183 183 177 176 180 185 189 192 195 225 236 251 246 227 119 248 254 215 210 212 199 197 197 196 182 200 221 228 227 226
209 202 202 199 198 200 197 195 193 192 191 189 190 188 191 188 184 189 202 196 197 189 212 99 311 152 159 161 177 175 190 190 181 183 243 309 294 244 199 231 251 236 224 217 219 210 204 203 201 202 211 214 217 221
210 201 200 198 198 198 196 193 190 189 186 185 183 181 182 186 191 212 216 161 177 177 201 118 295 154 169 161 170 165 157 172 169 193 168 247 282 250 255 239 239 238 227 217 216 217 230 227 218 213 218 226 224 223
210 201 195 196 198 197 193 191 188 185 182 180 177 173 174 189 196 209 192 179 184 196 192 160 146 201 161 163 145 149 167 48 260 220 178 206 245 231 229 239 234 219 213 212 207 215 225 231 229 227 231 235 237 240
205 201 193 192 196 197 189 188 185 183 179 172 166 157 169 178 164 152 158 176 200 216 212 155 138 140 157 160 157 136 210 159 193 246 262 225 256 254 250 242 234 217 212 213 201 208 218 228 230 233 238 243 248 252
203 201 193 188 195 196 186 186 183 179 171 160 164 162 152 148 143 171 182 173 186 265 201 158 167 143 175 137 181 198 170 159 81 255 146 280 274 246 250 236 229 213 208 215 221 230 237 238 239 238 239 243 248 251
196 201 193 182 190 193 185 184 182 175 166 169 157 138 137 177 159 115 217 292 169 219 173 153 141 130 148 151 119 159 136 62 229 128 69 271 251 251 225 211 224 223 219 218 214 211 203 180 189 207 230 244 255 263
192 197 189 181 184 189 184 182 181 171 162 152 151 155 168 168 61 167 191 246 231 169 171 155 132 148 133 150 92 102 99 210 127 66 231 231 249 246 219 236 231 228 208 204 201 204 208 212 226 234 238 250 259 266
188 192 183 180 186 183 181 178 178 165 159 153 158 176 195 197 236 187 184 183 167 158 156 145 120 138 129 86 135 108 242 74 50 297 238 249 263 264 218 217 227 220 204 199 194 190 208 224 217 220 248 252 267 277
186 190 178 180 180 177 176 176 175 170 162 169 174 212 191 194 164 169 166 141 147 156 151 124 96 131 58 97 52 110 51 251 216 231 234 276 310 239 198 189 169 156 173 184 192 208 199 203 222 240 257 267 276 284
181 181 175 175 176 173 171 170 170 173 184 183 198 119 114 129 123 163 166 152 154 156 150 138 117 88 198 135 113 214 149 219 242 221 271 291 301 266 195 175 155 141 142 157 175 190 200 217 232 245 255 275 286 289
169 170 171 172 173 170 166 159 163 179 179 188 189 197 176 190 180 169 171 170 162 162 164 135 123 188 115 70 248 193 207 221 239 272 272 293 270 206 185 179 175 176 177 188 198 206 213 219 231 246 269 301 296 295
171 171 168 167 166 159 161 167 169 167 164 159 149 176 187 183 168 164 170 171 164 190 158 183 133 139 180 182 236 228 233 250 268 276 298 290 243 207 193 191 195 197 205 217 221 221 224 235 246 258 275 288 287 291
167 170 167 163 161 156 153 178 184 131 127 154 160 175 179 172 179 183 175 176 177 176 158 159 110 179 220 211 224 226 235 239 323 8 261 272 237 218 206 204 211 220 230 239 242 245 250 257 265 281 286 284 286 292
166 166 165 161 161 153 120 105 141 117 154 164 159 159 160 154 161 169 173 176 172 166 165 172 208 224 221 231 219 220 216 221 271 344 91 66 13 316 278 275 277 282 280 277 272 269 264 260 273 290 287 288 290 291
163 161 159 156 158 152 101 136 115 124 129 128 152 146 124 144 146 164 170 178 185 212 211 215 219 230 248 255 254 252 253 244 218 241 286 289 295 293 287 282 285 282 279 279 277 275 267 273 285 287 290 292 289 288
154 156 148 154 146 95 92 100 120 117 100 138 137 127 130 153 153 169 165 188 223 215 205 213 223 236 246 254 262 264 269 268 269 273 277 281 282 281 280 282 282 281 280 276 273 273 274 279 280 280 282 283 280 279
148 149 146 133 105 87 113 117 93 101 121 159 128 103 114 133 158 154 192 223 229 221 226 234 243 251 253 257 260 266 272 276 278 279 281 282 282 279 278 282 281 277 277 278 278 276 275 277 278 278 279 276 274 270
144 135 124 113 101 103 130 92 106 110 104 137 120 118 158 147 159 205 245 223 222 233 234 242 247 252 253 254 257 263 271 272 273 277 282 283 282 286 288 285 282 278 277 279 275 275 278 280 283 279 275 273 268 266
108 140 119 83 115 113 106 121 115 90 108 147 116 134 178 162 181 204 225 234 230 239 246 252 253 254 253 261 268 270 273 274 276 280 282 280 282 281 281 284 284 281 278 272 272 275 275 277 278 280 280 273 269 272
80 26 96 135 133 116 161 128 151 137 123 113 88 124 154 159 163 237 214 225 236 249 255 255 258 263 265 269 272 279 286 288 284 274 273 276 275 273 277 279 281 284 266 267 261 256 261 268 276 280 279 278 275 274
121 118 89 75 122 123 99 77 122 119 120 136 157 158 157 153 228 252 230 248 267 273 276 281 275 271 275 282 283 283 272 260 257 261 264 263 263 267 275 286 293 286 263 259 260 265 271 275 280 281 278 275 272 272
112 150 130 141 92 82 117 113 128 145 137 151 130 163 167 188 219 195 179 225 48 178 270 302 333 292 260 255 252 241 241 242 241 242 247 262 268 265 263 268 265 273 276 275 272 270 271 273 274 275 274 273 273 274
78 126 118 79 88 85 120 138 175 163 156 162 133 160 203 187 164 184 197 197 172 135 85 360 5 13 69 163 207 208 202 246 261 258 252 253 244 257 265 269 268 268 270 271 271 272 273 274 273 272 276 281 282 280
162 120 96 62 83 126 119 141 147 159 165 173 173 151 148 150 166 185 217 228 244 295 10 306 298 273 241 203 208 214 227 240 246 256 266 268 271 267 265 266 268 268 269 270 270 270 271 273 278 282 284 284 282 279
127 104 77 60 92 93 129 138 151 161 169 177 185 188 163 161 153 125 91 97 40 289 274 260 269 271 266 263 262 260 260 268 264 260 258 263 269 273 275 274 274 275 275 274 275 275 276 277 278 278 276 273 269 270
73 75 119 102 85 119 120 127 131 133 163 177 178 175 157 155 114 159 6 9 332 299 310 314 304 294 293 293 292 290 286 282 274 270 269 273 274 273 273 274 275 277 280 282 281 278 275 271 267 264 260 264 266 264
72 78 90 105 117 125 124 118 77 74 75 83 65 124 150 170 121 60 355 351 346 343 334 326 320 316 308 299 291 289 288 289 289 289 288 283 280 277 275 278 281 282 282 280 276 271 264 258 258 259 256 250 238 221